| time (UTC) | temp C | wind direction | speed KPH | gust KPH | rain 1hr cm | rain 24hr cm | rain mn cm | humidity % | barometer mb |
| 20260506013904 | 20 | 209 | 8.0 | 12.9 | 0.00 | 0.05 | 0.05 | 56 | 1005.6 |
| 20260506013404 | 20 | 207 | 8.0 | 14.5 | 0.00 | 0.05 | 0.05 | 56 | 1005.6 |
| 20260506012904 | 20 | 221 | 8.0 | 19.3 | 0.00 | 0.05 | 0.05 | 56 | 1005.6 |
| 20260506012405 | 20 | 206 | 8.0 | 19.3 | 0.00 | 0.05 | 0.05 | 55 | 1005.5 |
| 20260506011404 | 21 | 207 | 8.0 | 19.3 | 0.00 | 0.05 | 0.05 | 55 | 1005.4 |
| 20260506010904 | 21 | 217 | 11.3 | 19.3 | 0.00 | 0.05 | 0.05 | 54 | 1005.4 |
| 20260506010404 | 21 | 212 | 11.3 | 24.1 | 0.00 | 0.05 | 0.05 | 54 | 1005.3 |
| 20260506005904 | 21 | 211 | 9.7 | 20.9 | 0.00 | 0.05 | 0.05 | 54 | 1005.3 |
| 20260506005405 | 21 | 204 | 9.7 | 19.3 | 0.00 | 0.05 | 0.05 | 53 | 1005.2 |
| 20260506004403 | 21 | 215 | 8.0 | 22.5 | 0.00 | 0.05 | 0.05 | 52 | 1005.0 |
| 20260506003904 | 21 | 218 | 9.7 | 19.3 | 0.00 | 0.05 | 0.05 | 50 | 1004.9 |
| 20260506003404 | 21 | 206 | 9.7 | 20.9 | 0.00 | 0.05 | 0.05 | 50 | 1004.8 |
| 20260506002904 | 22 | 210 | 12.9 | 22.5 | 0.00 | 0.05 | 0.05 | 50 | 1004.8 |
| 20260506002404 | 22 | 210 | 11.3 | 19.3 | 0.00 | 0.05 | 0.05 | 50 | 1004.7 |
| 20260506001904 | 22 | 202 | 12.9 | 20.9 | 0.00 | 0.05 | 0.05 | 50 | 1004.7 |
| 20260506001404 | 22 | 207 | 11.3 | 22.5 | 0.00 | 0.05 | 0.05 | 50 | 1004.5 |
| 20260506000904 | 22 | 209 | 14.5 | 22.5 | 0.00 | 0.05 | 0.05 | 49 | 1004.5 |
| 20260506000404 | 22 | 205 | 12.9 | 20.9 | 0.00 | 0.05 | 0.05 | 49 | 1004.4 |
| 20260505235904 | 22 | 207 | 12.9 | 25.7 | 0.00 | 0.05 | 0.05 | 49 | 1004.4 |
| 20260505235404 | 22 | 208 | 11.3 | 19.3 | 0.00 | 0.05 | 0.05 | 49 | 1004.3 |
| 20260505234904 | 22 | 199 | 14.5 | 25.7 | 0.00 | 0.05 | 0.05 | 49 | 1004.4 |
| 20260505234403 | 22 | 210 | 16.1 | 29.0 | 0.00 | 0.05 | 0.05 | 49 | 1004.3 |
| 20260505233905 | 22 | 213 | 12.9 | 22.5 | 0.00 | 0.05 | 0.05 | 49 | 1004.4 |
| 20260505232904 | 22 | 214 | 14.5 | 27.4 | 0.00 | 0.05 | 0.05 | 49 | 1004.3 |
| 20260505232404 | 22 | 222 | 14.5 | 25.7 | 0.00 | 0.05 | 0.05 | 48 | 1004.3 |
| 20260505231904 | 22 | 220 | 14.5 | 25.7 | 0.00 | 0.05 | 0.05 | 49 | 1004.4 |
| 20260505231405 | 22 | 223 | 11.3 | 25.7 | 0.00 | 0.05 | 0.05 | 49 | 1004.3 |
| 20260505230404 | 22 | 204 | 9.7 | 24.1 | 0.00 | 0.05 | 0.05 | 48 | 1004.4 |
| 20260505225404 | 22 | 226 | 16.1 | 32.2 | 0.00 | 0.05 | 0.05 | 48 | 1004.4 |
| 20260505224905 | 22 | 221 | 14.5 | 29.0 | 0.00 | 0.05 | 0.05 | 48 | 1004.4 |
| 20260505224404 | 22 | 210 | 12.9 | 27.4 | 0.00 | 0.05 | 0.05 | 48 | 1004.5 |
| 20260505223904 | 22 | 265 | 16.1 | 29.0 | 0.00 | 0.05 | 0.05 | 48 | 1004.4 |
| 20260505223404 | 22 | 211 | 16.1 | 33.8 | 0.00 | 0.05 | 0.05 | 48 | 1004.3 |
| 20260505222904 | 22 | 225 | 19.3 | 37.0 | 0.00 | 0.05 | 0.05 | 48 | 1004.2 |
| 20260505222404 | 23 | 211 | 19.3 | 33.8 | 0.00 | 0.05 | 0.05 | 48 | 1004.4 |
| 20260505221403 | 22 | 221 | 19.3 | 32.2 | 0.00 | 0.05 | 0.05 | 49 | 1004.4 |
| 20260505220903 | 22 | 224 | 14.5 | 24.1 | 0.00 | 0.05 | 0.05 | 49 | 1004.3 |
| 20260505220403 | 22 | 218 | 14.5 | 32.2 | 0.00 | 0.05 | 0.05 | 49 | 1004.2 |
| 20260505215404 | 23 | 221 | 9.7 | 20.9 | 0.00 | 0.05 | 0.05 | 50 | 1004.2 |
| 20260505214904 | 23 | 227 | 11.3 | 32.2 | 0.00 | 0.05 | 0.05 | 49 | 1004.1 |
| 20260505214404 | 23 | 223 | 14.5 | 25.7 | 0.00 | 0.05 | 0.05 | 49 | 1004.1 |
| 20260505213904 | 23 | 215 | 12.9 | 29.0 | 0.00 | 0.05 | 0.05 | 49 | 1004.2 |
| 20260505213404 | 23 | 215 | 12.9 | 24.1 | 0.00 | 0.05 | 0.05 | 49 | 1004.3 |
| 20260505212904 | 23 | 231 | 9.7 | 20.9 | 0.00 | 0.05 | 0.05 | 49 | 1004.3 |
| 20260505212404 | 23 | 225 | 14.5 | 24.1 | 0.00 | 0.05 | 0.05 | 49 | 1004.1 |
| 20260505211904 | 23 | 216 | 14.5 | 32.2 | 0.00 | 0.05 | 0.05 | 49 | 1004.1 |
| 20260505211403 | 23 | 208 | 12.9 | 24.1 | 0.00 | 0.05 | 0.05 | 49 | 1004.0 |
| 20260505210904 | 23 | 222 | 14.5 | 35.4 | 0.00 | 0.05 | 0.05 | 49 | 1004.0 |
| 20260505205903 | 23 | 238 | 14.5 | 27.4 | 0.00 | 0.05 | 0.05 | 48 | 1003.9 |
| 20260505205404 | 23 | 223 | 12.9 | 24.1 | 0.00 | 0.05 | 0.05 | 48 | 1004.0 |
| 20260505204904 | 23 | 243 | 9.7 | 20.9 | 0.00 | 0.05 | 0.05 | 48 | 1004.0 |
| 20260505204403 | 23 | 213 | 16.1 | 25.7 | 0.00 | 0.05 | 0.05 | 48 | 1003.8 |
| 20260505203904 | 23 | 209 | 16.1 | 27.4 | 0.00 | 0.05 | 0.05 | 48 | 1003.8 |
| 20260505203404 | 23 | 226 | 14.5 | 27.4 | 0.00 | 0.05 | 0.05 | 48 | 1003.9 |
| 20260505202903 | 23 | 215 | 16.1 | 32.2 | 0.00 | 0.05 | 0.05 | 48 | 1003.8 |
| 20260505202403 | 23 | 213 | 20.9 | 35.4 | 0.00 | 0.05 | 0.05 | 47 | 1003.9 |
| 20260505201404 | 24 | 235 | 19.3 | 40.2 | 0.00 | 0.05 | 0.05 | 48 | 1004.1 |
| 20260505200904 | 24 | 207 | 22.5 | 35.4 | 0.00 | 0.05 | 0.05 | 47 | 1004.1 |
| 20260505200403 | 24 | 210 | 16.1 | 32.2 | 0.00 | 0.05 | 0.05 | 48 | 1004.0 |
| 20260505195903 | 24 | 222 | 16.1 | 27.4 | 0.00 | 0.05 | 0.05 | 48 | 1004.0 |
| 20260505195404 | 23 | 208 | 17.7 | 33.8 | 0.00 | 0.05 | 0.05 | 47 | 1004.0 |
| 20260505194904 | 24 | 216 | 20.9 | 32.2 | 0.00 | 0.05 | 0.05 | 47 | 1004.0 |
| 20260505194403 | 24 | 201 | 16.1 | 32.2 | 0.00 | 0.05 | 0.05 | 48 | 1003.9 |
| 20260505193904 | 24 | 203 | 20.9 | 41.8 | 0.00 | 0.05 | 0.05 | 47 | 1003.9 |
| 20260505193404 | 23 | 209 | 14.5 | 24.1 | 0.00 | 0.05 | 0.05 | 48 | 1003.9 |
| 20260505192905 | 23 | 210 | 19.3 | 38.6 | 0.00 | 0.05 | 0.05 | 48 | 1004.1 |
| 20260505192405 | 23 | 210 | 14.5 | 33.8 | 0.00 | 0.05 | 0.05 | 48 | 1004.2 |
| 20260505191405 | 23 | 205 | 16.1 | 38.6 | 0.00 | 0.05 | 0.05 | 49 | 1004.5 |
| 20260505190905 | 23 | 212 | 14.5 | 27.4 | 0.00 | 0.05 | 0.05 | 49 | 1004.5 |
| 20260505190405 | 23 | 214 | 14.5 | 24.1 | 0.00 | 0.05 | 0.05 | 49 | 1004.5 |
| 20260505184905 | 24 | 221 | 19.3 | 32.2 | 0.00 | 0.05 | 0.05 | 45 | 1004.9 |
| 20260505184406 | 24 | 252 | 16.1 | 40.2 | 0.00 | 0.05 | 0.05 | 44 | 1005.0 |
| 20260505183906 | 24 | 247 | 16.1 | 29.0 | 0.00 | 0.05 | 0.05 | 45 | 1005.0 |
| 20260505183405 | 23 | 249 | 12.9 | 33.8 | 0.00 | 0.05 | 0.05 | 44 | 1005.0 |
| 20260505182905 | 23 | 224 | 19.3 | 38.6 | 0.00 | 0.05 | 0.05 | 44 | 1005.1 |
| 20260505182405 | 23 | 223 | 22.5 | 38.6 | 0.00 | 0.05 | 0.05 | 44 | 1005.3 |
| 20260505181906 | 23 | 243 | 16.1 | 32.2 | 0.00 | 0.05 | 0.05 | 44 | 1005.1 |
| 20260505180905 | 23 | 224 | 20.9 | 32.2 | 0.00 | 0.05 | 0.05 | 48 | 1005.4 |
| 20260505180405 | 23 | 206 | 16.1 | 27.4 | 0.00 | 0.05 | 0.05 | 50 | 1005.3 |
| 20260505175905 | 23 | 242 | 12.9 | 22.5 | 0.00 | 0.05 | 0.05 | 47 | 1005.4 |
| 20260505175406 | 23 | 236 | 16.1 | 29.0 | 0.00 | 0.05 | 0.05 | 49 | 1005.5 |
| 20260505174905 | 23 | 216 | 19.3 | 33.8 | 0.00 | 0.05 | 0.05 | 51 | 1005.5 |
| 20260505174405 | 23 | 223 | 14.5 | 29.0 | 0.00 | 0.05 | 0.05 | 52 | 1005.5 |
| 20260505173905 | 23 | 229 | 11.3 | 24.1 | 0.00 | 0.05 | 0.05 | 53 | 1005.5 |
| 20260505173405 | 23 | 219 | 8.0 | 19.3 | 0.00 | 0.05 | 0.05 | 52 | 1005.5 |
| 20260505172406 | 22 | 253 | 9.7 | 27.4 | 0.00 | 0.05 | 0.05 | 52 | 1005.5 |
| 20260505171905 | 22 | 245 | 14.5 | 27.4 | 0.00 | 0.05 | 0.05 | 52 | 1005.5 |
| 20260505170905 | 22 | 255 | 12.9 | 29.0 | 0.00 | 0.05 | 0.05 | 51 | 1005.7 |
| 20260505165905 | 22 | 330 | 9.7 | 27.4 | 0.00 | 0.05 | 0.05 | 52 | 1005.9 |
| 20260505164906 | 22 | 255 | 9.7 | 24.1 | 0.00 | 0.05 | 0.05 | 52 | 1005.9 |
| 20260505164405 | 22 | 259 | 11.3 | 25.7 | 0.00 | 0.05 | 0.05 | 53 | 1006.0 |
| 20260505163905 | 22 | 252 | 11.3 | 32.2 | 0.00 | 0.05 | 0.05 | 51 | 1006.0 |
| 20260505162405 | 22 | 283 | 11.3 | 27.4 | 0.00 | 0.05 | 0.05 | 54 | 1006.1 |
| 20260505161905 | 22 | 222 | 12.9 | 33.8 | 0.00 | 0.05 | 0.05 | 55 | 1006.2 |
| 20260505161405 | 22 | 265 | 14.5 | 27.4 | 0.00 | 0.05 | 0.05 | 55 | 1006.2 |
| 20260505160405 | 22 | 348 | 11.3 | 32.2 | 0.00 | 0.05 | 0.05 | 56 | 1006.3 |
| 20260505152905 | 21 | 248 | 11.3 | 27.4 | 0.00 | 0.05 | 0.05 | 59 | 1006.8 |
| 20260505152405 | 21 | 247 | 9.7 | 24.1 | 0.00 | 0.05 | 0.05 | 59 | 1006.8 |
| 20260505151905 | 21 | 259 | 12.9 | 27.4 | 0.00 | 0.05 | 0.05 | 60 | 1006.9 |
| 20260505151405 | 21 | 241 | 8.0 | 19.3 | 0.00 | 0.05 | 0.05 | 61 | 1006.7 |
| 20260505150905 | 20 | 295 | 11.3 | 22.5 | 0.00 | 0.05 | 0.05 | 60 | 1006.9 |
| 20260505150405 | 20 | 211 | 14.5 | 24.1 | 0.00 | 0.05 | 0.05 | 61 | 1006.7 |
| 20260505124905 | 18 | 247 | 11.3 | 24.1 | 0.00 | 0.05 | 0.05 | 65 | 1007.1 |
| 20260505124405 | 18 | 228 | 11.3 | 24.1 | 0.00 | 0.05 | 0.05 | 66 | 1007.1 |
| 20260505123405 | 17 | 241 | 9.7 | 19.3 | 0.00 | 0.05 | 0.05 | 67 | 1007.1 |
| 20260505122905 | 17 | 247 | 11.3 | 19.3 | 0.00 | 0.05 | 0.05 | 68 | 1007.1 |
| 20260505121905 | 17 | 217 | 9.7 | 16.1 | 0.00 | 0.05 | 0.05 | 69 | 1007.0 |
| 20260505121405 | 16 | 209 | 11.3 | 20.9 | 0.00 | 0.05 | 0.05 | 69 | 1007.1 |
| 20260505120905 | 16 | 289 | 9.7 | 19.3 | 0.00 | 0.05 | 0.05 | 70 | 1007.3 |
| 20260505115404 | 16 | 205 | 11.3 | 20.9 | 0.00 | 0.05 | 0.05 | 70 | 1007.1 |
| 20260505114905 | 16 | 212 | 11.3 | 20.9 | 0.00 | 0.05 | 0.05 | 71 | 1007.0 |
| 20260505114405 | 16 | 211 | 11.3 | 19.3 | 0.00 | 0.05 | 0.05 | 71 | 1006.9 |
| 20260505113905 | 16 | 215 | 12.9 | 25.7 | 0.00 | 0.05 | 0.05 | 71 | 1006.9 |
| 20260505113404 | 15 | 211 | 11.3 | 19.3 | 0.00 | 0.05 | 0.05 | 72 | 1007.1 |
| 20260505112905 | 15 | 211 | 12.9 | 22.5 | 0.00 | 0.05 | 0.05 | 73 | 1007.0 |
| 20260505112405 | 15 | 216 | 9.7 | 19.3 | 0.00 | 0.05 | 0.05 | 74 | 1007.0 |
| 20260505111906 | 15 | 222 | 9.7 | 16.1 | 0.00 | 0.05 | 0.05 | 75 | 1006.8 |
| 20260505111405 | 15 | 206 | 9.7 | 16.1 | 0.00 | 0.05 | 0.05 | 75 | 1006.9 |
| 20260505110904 | 14 | 212 | 9.7 | 16.1 | 0.00 | 0.05 | 0.05 | 75 | 1006.9 |
| 20260505110404 | 14 | 206 | 11.3 | 19.3 | 0.00 | 0.05 | 0.05 | 76 | 1006.7 |
| 20260505101905 | 13 | 206 | 14.5 | 20.9 | 0.00 | 0.05 | 0.05 | 78 | 1006.4 |
| 20260505100904 | 13 | 203 | 12.9 | 20.9 | 0.00 | 0.05 | 0.05 | 78 | 1006.5 |
| 20260505100405 | 14 | 196 | 12.9 | 22.5 | 0.00 | 0.05 | 0.05 | 77 | 1006.4 |
| 20260505095905 | 14 | 202 | 11.3 | 20.9 | 0.00 | 0.05 | 0.05 | 77 | 1006.4 |
| 20260505095405 | 14 | 205 | 11.3 | 19.3 | 0.00 | 0.05 | 0.05 | 77 | 1006.3 |
| 20260505094905 | 14 | 208 | 12.9 | 20.9 | 0.00 | 0.05 | 0.05 | 77 | 1006.1 |
| 20260505094404 | 14 | 201 | 12.9 | 20.9 | 0.00 | 0.05 | 0.05 | 77 | 1006.0 |
| 20260505093905 | 14 | 209 | 12.9 | 19.3 | 0.00 | 0.05 | 0.05 | 77 | 1006.1 |
| 20260505092905 | 14 | 199 | 11.3 | 20.9 | 0.00 | 0.05 | 0.05 | 77 | 1006.0 |
| 20260505091904 | 14 | 203 | 11.3 | 19.3 | 0.00 | 0.05 | 0.05 | 78 | 1006.0 |
| 20260505091404 | 14 | 199 | 11.3 | 19.3 | 0.00 | 0.05 | 0.05 | 78 | 1006.0 |
| 20260505090904 | 13 | 201 | 9.7 | 16.1 | 0.00 | 0.05 | 0.05 | 79 | 1006.0 |
| 20260505090405 | 13 | 202 | 11.3 | 19.3 | 0.00 | 0.05 | 0.05 | 80 | 1006.1 |
| 20260505085905 | 13 | 206 | 11.3 | 19.3 | 0.05 | 0.05 | 0.05 | 80 | 1006.1 |
| 20260505084905 | 13 | 201 | 11.3 | 19.3 | 0.05 | 0.05 | 0.05 | 80 | 1006.1 |
| 20260505084405 | 14 | 210 | 11.3 | 20.9 | 0.05 | 0.05 | 0.05 | 79 | 1006.1 |
| 20260505083904 | 14 | 209 | 11.3 | 24.1 | 0.05 | 0.05 | 0.05 | 79 | 1006.2 |
| 20260505083406 | 14 | 215 | 14.5 | 20.9 | 0.05 | 0.05 | 0.05 | 79 | 1006.1 |
| 20260505082904 | 14 | 205 | 11.3 | 16.1 | 0.05 | 0.05 | 0.05 | 80 | 1006.2 |
| 20260505082406 | 14 | 202 | 11.3 | 22.5 | 0.05 | 0.05 | 0.05 | 79 | 1006.0 |
| 20260505081906 | 14 | 210 | 8.0 | 14.5 | 0.05 | 0.05 | 0.05 | 79 | 1005.9 |
| 20260505081404 | 14 | 195 | 11.3 | 22.5 | 0.05 | 0.05 | 0.05 | 78 | 1005.9 |
| 20260505080405 | 14 | 205 | 16.1 | 27.4 | 0.05 | 0.05 | 0.05 | 77 | 1006.2 |
| 20260505075905 | 15 | 211 | 16.1 | 25.7 | 0.00 | 0.00 | 0.00 | 73 | 1006.3 |
| 20260505075404 | 15 | 207 | 16.1 | 29.0 | 0.00 | 0.00 | 0.00 | 72 | 1006.3 |
| 20260505074905 | 14 | 210 | 9.7 | 19.3 | 0.00 | 0.00 | 0.00 | 71 | 1006.2 |
| 20260505074404 | 14 | 204 | 8.0 | 19.3 | 0.00 | 0.00 | 0.00 | 71 | 1006.1 |
| 20260505073904 | 14 | 194 | 8.0 | 14.5 | 0.00 | 0.00 | 0.00 | 71 | 1006.1 |
| 20260505073404 | 14 | 197 | 9.7 | 14.5 | 0.00 | 0.00 | 0.00 | 71 | 1006.0 |
| 20260505072904 | 14 | 198 | 8.0 | 12.9 | 0.00 | 0.00 | 0.00 | 71 | 1006.0 |
| 20260505072405 | 14 | 188 | 4.8 | 11.3 | 0.00 | 0.00 | 0.00 | 71 | 1006.1 |
| 20260505071405 | 14 | 190 | 4.8 | 12.9 | 0.00 | 0.00 | 0.00 | 70 | 1006.2 |
| 20260505070904 | 14 | 198 | 4.8 | 8.0 | 0.00 | 0.00 | 0.00 | 70 | 1006.3 |
| 20260505070404 | 14 | 192 | 8.0 | 12.9 | 0.00 | 0.00 | 0.00 | 70 | 1006.3 |
| 20260505065905 | 14 | 193 | 9.7 | 14.5 | 0.00 | 0.00 | 0.00 | 70 | 1006.4 |
| 20260505064904 | 15 | 196 | 8.0 | 16.1 | 0.00 | 0.00 | 0.00 | 69 | 1006.4 |
| 20260505064405 | 15 | 203 | 8.0 | 19.3 | 0.00 | 0.00 | 0.00 | 69 | 1006.4 |
| 20260505063905 | 15 | 206 | 11.3 | 14.5 | 0.00 | 0.00 | 0.00 | 69 | 1006.5 |
| 20260505063405 | 14 | 201 | 12.9 | 19.3 | 0.00 | 0.00 | 0.00 | 69 | 1006.5 |
| 20260505062404 | 15 | 202 | 9.7 | 19.3 | 0.00 | 0.00 | 0.00 | 68 | 1006.6 |
| 20260505061904 | 14 | 205 | 9.7 | 16.1 | 0.00 | 0.00 | 0.00 | 68 | 1006.6 |
| 20260505061404 | 15 | 204 | 9.7 | 19.3 | 0.00 | 0.00 | 0.00 | 68 | 1006.5 |
| 20260505060904 | 15 | 204 | 9.7 | 16.1 | 0.00 | 0.00 | 0.00 | 67 | 1006.5 |
| 20260505060404 | 15 | 202 | 9.7 | 19.3 | 0.00 | 0.00 | 0.00 | 67 | 1006.7 |
| 20260505055904 | 14 | 206 | 11.3 | 20.9 | 0.00 | 0.00 | 0.00 | 67 | 1006.8 |
| 20260505055404 | 14 | 201 | 11.3 | 19.3 | 0.00 | 0.00 | 0.00 | 67 | 1006.7 |
| 20260505054904 | 14 | 202 | 9.7 | 16.1 | 0.00 | 0.00 | 0.00 | 67 | 1006.8 |
| 20260505053904 | 14 | 209 | 11.3 | 19.3 | 0.00 | 0.00 | 0.00 | 67 | 1006.7 |
| 20260505053405 | 14 | 205 | 9.7 | 16.1 | 0.00 | 0.00 | 0.00 | 66 | 1006.7 |
| 20260505052404 | 15 | 211 | 11.3 | 24.1 | 0.00 | 0.00 | 0.00 | 66 | 1006.7 |
| 20260505051904 | 15 | 208 | 12.9 | 20.9 | 0.00 | 0.00 | 0.00 | 66 | 1006.7 |
| 20260505051404 | 15 | 200 | 12.9 | 20.9 | 0.00 | 0.00 | 0.00 | 66 | 1006.7 |
| 20260505050904 | 15 | 207 | 11.3 | 19.3 | 0.00 | 0.00 | 0.00 | 66 | 1006.5 |
| 20260505050404 | 15 | 204 | 11.3 | 19.3 | 0.00 | 0.00 | 0.00 | 65 | 1006.6 |
| 20260505041405 | 15 | 199 | 11.3 | 20.9 | 0.00 | 0.00 | 0.00 | 64 | 1006.4 |
| 20260505040904 | 15 | 199 | 11.3 | 22.5 | 0.00 | 0.00 | 0.00 | 64 | 1006.5 |
| 20260505040404 | 15 | 199 | 8.0 | 19.3 | 0.00 | 0.00 | 0.00 | 63 | 1006.4 |
| 20260505035904 | 15 | 191 | 9.7 | 16.1 | 0.00 | 0.00 | 0.00 | 63 | 1006.5 |
| 20260505035404 | 15 | 191 | 9.7 | 14.5 | 0.00 | 0.00 | 0.00 | 63 | 1006.5 |
| 20260505034905 | 15 | 193 | 12.9 | 20.9 | 0.00 | 0.00 | 0.00 | 63 | 1006.5 |
| 20260505034404 | 15 | 191 | 9.7 | 25.7 | 0.00 | 0.00 | 0.00 | 63 | 1006.5 |
| 20260505033904 | 15 | 199 | 9.7 | 16.1 | 0.00 | 0.00 | 0.00 | 63 | 1006.4 |
| 20260505033404 | 15 | 191 | 8.0 | 16.1 | 0.00 | 0.00 | 0.00 | 63 | 1006.4 |
| 20260505032904 | 15 | 186 | 9.7 | 19.3 | 0.00 | 0.00 | 0.00 | 62 | 1006.4 |
| 20260505032404 | 15 | 191 | 8.0 | 19.3 | 0.00 | 0.00 | 0.00 | 62 | 1006.4 |
| 20260505031904 | 15 | 188 | 8.0 | 16.1 | 0.00 | 0.00 | 0.00 | 62 | 1006.4 |
| 20260505031404 | 15 | 177 | 9.7 | 14.5 | 0.00 | 0.00 | 0.00 | 62 | 1006.4 |
| 20260505030904 | 15 | 180 | 6.4 | 16.1 | 0.00 | 0.00 | 0.00 | 62 | 1006.5 |
| 20260505030404 | 15 | 186 | 9.7 | 20.9 | 0.00 | 0.00 | 0.00 | 61 | 1006.6 |
| 20260505025904 | 15 | 183 | 8.0 | 16.1 | 0.00 | 0.00 | 0.00 | 61 | 1006.7 |
| 20260505025404 | 15 | 176 | 8.0 | 19.3 | 0.00 | 0.00 | 0.00 | 61 | 1006.7 |
| 20260505024904 | 15 | 184 | 9.7 | 19.3 | 0.00 | 0.00 | 0.00 | 61 | 1006.7 |
| 20260505024404 | 15 | 185 | 9.7 | 19.3 | 0.00 | 0.00 | 0.00 | 61 | 1006.8 |
| 20260505023904 | 15 | 175 | 9.7 | 16.1 | 0.00 | 0.00 | 0.00 | 61 | 1006.8 |
| 20260505023404 | 15 | 179 | 11.3 | 20.9 | 0.00 | 0.00 | 0.00 | 60 | 1006.6 |
| 20260505022904 | 15 | 187 | 9.7 | 20.9 | 0.00 | 0.00 | 0.00 | 60 | 1006.7 |
| 20260505021904 | 15 | 197 | 11.3 | 24.1 | 0.00 | 0.00 | 0.00 | 60 | 1007.0 |
| 20260505020904 | 15 | 195 | 9.7 | 19.3 | 0.00 | 0.00 | 0.00 | 60 | 1006.9 |
| 20260505020404 | 16 | 188 | 11.3 | 27.4 | 0.00 | 0.00 | 0.00 | 60 | 1006.9 |
| 20260505015904 | 16 | 203 | 9.7 | 20.9 | 0.00 | 0.00 | 0.00 | 60 | 1007.0 |
| 20260505015404 | 16 | 192 | 11.3 | 20.9 | 0.00 | 0.00 | 0.00 | 59 | 1006.9 |